Погода в Вожово

Россия / Орловская область     52°40′39″N   35°48′07″E
темп.,
°C
ветер,
м/с
пор.,
м/с
влажн.,
%
обл.,
%
осадки,
мм/ч
давл.,
гПа
погр.,
м
22 мая, вс
вс2200:00+8в4899100 3.8 1001335
03:00+8всв3599100 10.1 998231
06:00+8в4799100 6.8 997379
09:00+8всв61198100 14.6 997643
12:00+7всв91395100 6.4 999970
15:00+7всв51094100 9.4 10011010
18:00+9св6118790 0.3 1002595
21:00+6ссв368911 0.5 100484
23 мая, пн
пн2300:00+4с35875 0.0 100664
03:00+2с34885 0.0 100757
06:00+2с38875 0.0 1008222
09:00+8с47650 0.0 1008834
12:00+11ссз465288 0.0 10081971
15:00+12сз474978 0.0 10072053
18:00+12сз476389 0.0 1007533
21:00+7сз34754 0.1 100844
24 мая, вт
вт2400:00+5зсз47715 0.0 100994
03:00+3зсз48845 0.0 1009131
06:00+4зсз37914 0.0 1010197
09:00+10сз576691 0.0 1010714
12:00+13сз5856100 0.0 10111445
15:00+14сз6969100 0.3 10101262
18:00+13сз51073100 1.2 1010456
21:00+10сз1188100 2.3 101214
25 мая, ср
ср2500:00+9з3894100 0.2 1012175
03:00+8сз3798100 0.6 1013195
06:00+7всв3495100 0.3 1014230
09:00+8вюв2288100 0.4 1014433
12:00+9всв2287100 0.0 1015507
15:00+11ссв3479100 0.0 1015855
18:00+10ссв3579100 0.0 1016484
21:00+6вюв349026 0.0 101766
26 мая, чт
чт2600:00+5юв35915 0.0 101778
03:00+5юв369011 0.0 101698
06:00+6юв4887100 0.0 1014196
09:00+10юв598839 0.0 1012323
12:00+15ю71183100 0.1 1009728
15:00+11ю71594100 4.2 1007869
18:00+12ююз71497100 1.9 1005695
21:00+11зюз49966 2.3 1005242